Regional Weather Roundup
Issued by NWS Mobile, AL

Home | Current Version | Previous Version | Text Only | Print | Product List | Glossary On
Versions: 1 2 3 4 5 6 7 8 9 10 11 12 13 14 15 16 17 18 19 20 21 22 23 24 25 26 27
000
ASUS44 KMOB 010310
RWRMOB
REGIONAL WEATHER ROUNDUP
NATIONAL WEATHER SERVICE MOBILE AL
1000 PM CDT FRI OCT 31 2014

NOTE: "FAIR" INDICATES FEW OR NO CLOUDS BELOW 12,000 FEET WITH NO
      SIGNIFICANT WEATHER AND/OR OBSTRUCTIONS TO VISIBILITY.

  * THESE STATIONS ARE PART OF THE UNIVERSITY OF SOUTH ALABAMA
    MESONET AND ARE NOT UNDER NWS OR FAA QUALITY CONTROL.

ALZ061>064-010400-
COASTAL ALABAMA

CITY           SKY/WX    TMP DP  RH WIND       PRES   REMARKS
MOBILE REG APT CLEAR     58  46  64 NW17G24   30.11R
BROOKLEY FIELD CLEAR     61  46  57 NW23G29   30.10R
USA CAMPUS*      N/A     59  45  58 VRB3      30.11R
DOG RIVER*     NOT AVBL


CITY           SKY/WX    TMP DP  RH WIND       PRES   REMARKS
MOUNT VERNON*  NOT AVBL
SARALAND*      NOT AVBL
BAY MINETTE*   NOT AVBL
LOXLEY*          N/A     61  46  59 N13       30.07R
ROBERTSDALE*     N/A     61  46  59 NW2       30.06R
FAIRHOPE*        N/A     61  48  63 NW14      30.06R
ELBERTA*         N/A     61  48  63 N7        30.05R
FOLEY*           N/A     59  45  58 NW6       30.00R
GRAND BAY*       N/A     61  48  63 NW6       30.08R
DAUPHIN ISLND* NOT AVBL
BON SCOUR NWR* NOT AVBL
GULF SHORES    CLEAR     62  47  58 NW12G20   30.05R

$$

ALZ051>060-010400-
INTERIOR SOUTHWEST AND SOUTH CENTRAL ALABAMA

CITY           SKY/WX    TMP DP  RH WIND       PRES   REMARKS
GREENVILLE     CLOUDY    54  42  64 N15G24    30.06R
EVERGREEN      CLOUDY    60  43  53 NW15G29   30.07R
CASTLEBERRY*   NOT AVBL
ATMORE*          N/A     59  46  63 NW14      30.07R
DIXIE*           N/A     57  48  72 NE3       30.02R
ANDALUSIA/OPP  PTCLDY    61  47  59 N15G25    30.03R
ANDALUSIA*       N/A     57  48  72 NW12      30.02R
FLORALA APT    CLEAR     59  46  62 VRB7      30.04R
FLORALA*         N/A     59  45  58 NW6       30.00R

$$

FLZ001>006-010400-
WESTERN FLORIDA PANHANDLE

CITY           SKY/WX    TMP DP  RH WIND       PRES   REMARKS
PENSACOLA      CLEAR     62  47  57 N13G22    30.04R
NAS PENSACOLA  CLEAR     63  47  55 N13G25    30.04R
MILTON         CLEAR     60  45  57 NW10G22   30.05R
WHTNG S FIELD  PTCLDY    61  46  57 NW14      30.04R


CITY           SKY/WX    TMP DP  RH WIND       PRES   REMARKS
WALNUT HILL*   NOT AVBL
JAY*             N/A     59  45  58 NW9       30.06R
DUKE FIELD     CLEAR     60  46  60 N14G25    30.01R
CRESTVIEW      CLEAR     60  47  61 N12       30.04R
VALPARAISO     PTCLDY    62  47  58 N14       30.00R
DESTIN         CLEAR     64  49  57 N20G32    30.00R

$$

MSZ076-079-010400-
INTERIOR SOUTHEAST MISSISSIPPI

CITY           SKY/WX    TMP DP  RH WIND       PRES   REMARKS
LEAKESVILLE*     N/A     55  41  58 CALM      30.15R
AGRICOLA*      NOT AVBL

$$

MARINE OBSERVATIONS

STATION/POSITION TIME  TEMP    WIND        PRES    WAVE
                       AIR SEA DIR/SP/G            HT/PER
                 (UTC) (F)     (DEG/KT/KT) (MB)    (FT/S)
PASCAGOULA       0300   61     330/ 16/ 21 1019.0R
PETIT BOIS ISLND 0300   63     340/ 26/ 35 1019.3R
GRAND BAY        0200   64     340/ 14     1018.0S
KATRINA CUT      0200   66     340/ 24     1017.6S
CEDAR POINT      0200   65     340/ 20     1016.9F
E DAUPHIN ISLAND 0159   66     330/ 24/ 28 1017.6R
MIDDLE BAY LIGHT 0200   65     340/ 31       N/A
USCG MOBILE BAY  0300   62 73  340/ 13/ 19 1017.6R
STATE DOCKS      0300   62 73              1018.5R
MEAHER PARK      0200   63     330/ 12     1018.3R
WEEKS BAY        0200   66                   N/A
12 S ORANGE BCH  0300   68 76  330/ 25/ 31 1016.4R   4/ 5
PENSACOLA BAY    0300   64 74  350/  6/ 14 1017.2R
64 S DAUPHIN ISL 0156   70 78  340/ 27/ 33 1017.8    7/ 6
67 S FORT MORGAN 0100   72                 1015.9R

$$

SELECTED LOCATIONS ACROSS THE REGION

CITY           SKY/WX    TMP DP  RH WIND       PRES   REMARKS
NEW ORLEANS    PTCLDY    63  46  54 N21G29    30.17R
GULFPORT       CLEAR     59  44  57 N15G31    30.14R
PASCAGOULA AP  CLEAR     60  47  61 NW10G20   30.11R
PASCAGOULA*      N/A     61  46  59 NW7       30.10R
HATTIESBURG    PTCLDY    56  42  59 NW15G23   30.20R
LAUREL         CLEAR     54  36  50 N17G23    30.20R
MERIDIAN       CLEAR     50  35  56 N22G28    30.19R
JACKSON        PTCLDY    52  39  61 N15       30.24R
MONTGOMERY     CLOUDY    54  42  64 NW9G21    30.07R
TROY           PTCLDY    54  44  69 NW15G26   30.04R
KINSTON*       NOT AVBL
GENEVA*          N/A     57  46  67 N3        30.02R
ASHFORD*         N/A     57  48  72 NW12      30.02R
DOTHAN         MOCLDY    55  47  74 NW10      30.01R
PANAMA CITY    CLEAR     61  47  59 NW12      29.97R

$$




USA.gov is the U.S. government's official web portal to all federal, state and local government web resources and services.